Location: ?????????
(41.3174°N, 22.5600°E)
Time: 17:31:17
(UTC+00:00)

Daily predictions for brighter satellites

Satellite Brightness Start Highest point End
(mag) Time Altitude Azimuth Time Altitude Azimuth Time Altitude Azimuth
CZ-4B R/B 3.4 15:54:19 10° SSE 15:59:57 84° WSW 16:05:33 10° NNW
Okean O Rocket 1.6 15:55:38 10° SSE 16:00:00 89° E 16:04:23 10° NNW
ATLAS 5 CENTAUR R/B 4.1 15:59:45 10° WNW 16:01:56 13° NNW 16:04:13 10° N
H-2A R/B 3.3 15:58:23 10° N 16:02:21 43° WNW 16:06:13 10° SW
Cosmos 1110 Rocket 4.0 16:00:30 10° S 16:05:42 66° ESE 16:10:54 10° NNE
Cosmos 1825 Rocket 3.7 16:04:48 10° N 16:09:10 53° E 16:13:29 10° SSE
YAOGAN 1 4.0 16:07:53 10° ESE 16:10:51 18° ENE 16:13:50 10° NNE
GENESIS II 4.2 16:06:58 10° SSW 16:10:58 72° ESE 16:15:00 10° NE
COSMOS 2487 2.5 16:10:12 10° NNW 16:13:39 80° WSW 16:17:04 10° SSE
Envisat 4.4 16:10:36 10° S 16:15:25 44° W 16:20:16 10° NNW
Cosmos 1908 4.4 16:12:27 10° SSW 16:16:08 47° W 16:19:52 10° N
Cosmos 2227 Rocket 3.4 16:12:50 10° N 16:17:13 22° NE 16:21:34 10° ESE
Cosmos 1741 Rocket 4.2 16:12:01 10° NNW 16:17:16 77° WSW 16:22:27 10° SSE
YAOGAN 6 4.4 16:14:12 10° SSW 16:17:35 37° W 16:21:02 10° NNW
Cosmos 1689 Rocket 2.6 16:15:40 10° NNE 16:18:22 35° E 16:21:03 10° SSE
Cosmos 1656 4.5 16:13:58 10° SSE 16:18:39 29° ESE 16:23:23 10° NE
Meteor 2-14 Rocket 4.4 16:16:26 10° N 16:22:36 80° E 16:28:43 10° S
Cosmos 1726 Rocket 3.5 16:18:35 10° S 16:22:49 60° E 16:27:09 10° NNE
SL-4 R/B 3.8 16:20:40 10° NW 16:23:07 17° N 16:25:40 10° NE
Aureole 3 Rocket 3.5 16:19:57 10° SSE 16:23:14 34° E 16:27:28 10° NNE
Cosmos 1758 Rocket 3.9 16:22:31 10° NNW 16:26:56 72° W 16:31:15 10° S
Meteor 2-21 4.5 16:21:08 10° N 16:27:20 89° W 16:33:26 10° S
Cosmos 1892 4.1 16:25:28 10° NNE 16:28:19 19° ENE 16:30:31 13° ESE
Okean-O 3.2 16:25:46 10° SE 16:29:48 36° ENE 16:33:53 10° N
Cosmos 1346 Rocket 4.5 16:28:25 10° NNE 16:30:34 15° ENE 16:30:34 15° ENE
MOS 1 Rocket 4.4 16:27:59 10° NE 16:31:42 23° E 16:35:32 10° SE
CZ-2D R/B 3.5 16:29:01 10° SE 16:32:38 43° ENE 16:36:16 10° N
Cosmos 1697 Rocket 3.9 16:30:29 10° SE 16:34:29 20° E 16:36:49 16° ENE
Cosmos 1606 Rocket 3.8 16:33:17 10° SSW 16:37:37 71° W 16:42:01 10° N
Cosmos 2228 3.4 16:33:39 10° SSW 16:37:50 66° W 16:42:06 10° N
Cosmos 1300 2.7 16:34:09 10° S 16:37:57 87° W 16:41:47 10° N
USA 281 4.3 16:33:47 10° S 16:40:04 48° WSW 16:46:23 10° NW
Cosmos 44 3.1 16:35:57 10° SSW 16:40:23 84° WNW 16:45:08 10° NNE
Lacrosse 5 4.1 16:40:54 10° NW 16:43:43 15° N 16:46:32 10° NNE
SKYMED 2 3.6 16:40:28 10° NNE 16:44:49 87° WNW 16:49:10 10° SSW
Nadezhda 2 Rocket 4.5 16:38:49 10° N 16:45:15 77° E 16:51:41 10° SSE
H-2A R/B 2.8 16:42:00 10° SE 16:46:45 33° ENE 16:51:34 10° N
Cosmos 1244 Rocket 4.4 16:42:24 10° N 16:48:37 73° E 16:54:51 10° SSE
OAO 3 Rocket 4.3 16:44:29 10° WSW 16:48:51 35° S 16:52:03 16° SE
CZ-4 R/B 4.4 16:50:30 10° SSE 16:54:39 88° ENE 16:58:51 10° NNW
IRS-1C Rocket 4.3 16:51:54 10° S 16:57:09 75° WSW 17:02:26 10° NNW
Cosmos 2297 Rocket 2.3 16:52:20 10° NNW 16:57:53 53° ENE 17:02:27 15° SE
CZ-4B R/B 4.2 16:56:15 10° NNW 16:58:34 18° WNW 17:00:51 10° WSW
In-Cosmos 22 Rocket 4.0 16:56:08 10° N 17:01:28 67° E 17:06:54 10° SSE
Helios 1A Rocket 2.9 16:59:10 10° SSE 17:03:18 83° WSW 17:07:26 10° NNW
CSL-04 Debris 4.3 16:58:41 10° SE 17:03:52 49° ENE 17:09:08 10° N
FALCON 9 DEB 3.7 17:02:07 10° WSW 17:05:14 47° NNW 17:06:17 33° NNE
Geosat 3.9 17:00:54 10° NNE 17:05:57 74° ESE 17:10:58 10° SSW
Cosmos 1939 Rocket 3.8 17:02:28 10° S 17:06:21 49° W 17:10:11 10° NNW
Cosmos 2058 Rocket 3.3 17:01:55 10° SSW 17:06:21 72° W 17:10:53 10° N
Cosmos 1340 2.5 17:05:39 10° N 17:09:27 88° E 17:13:13 10° S
Cosmos 220 Rocket 4.2 17:07:12 10° S 17:11:19 44° ESE 17:11:28 44° E
FALCON 9 DEB 4.0 17:08:45 10° WSW 17:11:47 39° NNW 17:12:33 32° N
FALCON 9 DEB 4.2 17:18:07 10° W 17:21:08 35° NNW 17:21:32 34° NNW
S3M 3.8 17:16:29 10° S 17:22:33 73° E 17:28:41 10° N
Cosmos 2219 3.2 17:19:08 10° NNW 17:24:56 89° WSW 17:29:42 15° SSE
Cosmos 2058 3.0 17:22:01 10° N 17:25:31 57° NE 17:25:31 57° NE
CZ-4 R/B 2.0 17:22:16 10° S 17:26:07 54° W 17:29:56 10° NNW
Cosmos 1455 4.3 17:23:56 10° S 17:24:39 15° S 17:24:39 15° S
NOSS 3-3 (A) 3.8 17:24:06 10° SSW 17:29:42 63° ESE 17:31:48 40° ENE
NOSS 3-3 (C) 3.8 17:24:11 10° SSW 17:29:50 63° ESE 17:31:55 40° ENE
OAO 2 Rocket 4.2 17:27:24 10° SW 17:31:50 33° SSE 17:32:01 33° SSE
SeaSat 1 2.5 17:32:11 53° ENE 17:32:11 53° ENE 17:36:58 10° NNW
USA 215 4.1 17:33:06 30° NE 17:34:36 34° NNE 17:40:20 10° NW
Cosmos 2082 3.9 17:29:32 10° NNW 17:35:02 48° ENE 17:35:02 48° ENE
CZ-2C R/B 3.7 17:34:51 10° S 17:40:36 63° W 17:46:17 10° NNW
Atlas Centaur 2 3.8 17:35:36 10° SW 17:43:04 35° S 17:44:58 31° SE
Cosmos 2369 3.6 17:38:12 10° SSW 17:43:51 68° ESE 17:44:13 66° E
ATLAS 2AS CENTAUR R/B 4.0 17:38:10 10° NNW 17:44:12 25° NNE 17:44:29 25° NE
YAOGAN 1 3.8 17:42:34 10° S 17:46:38 41° W 17:50:45 10° NNW
Cosmos 968 Rocket 3.5 17:41:25 10° NNW 17:46:40 80° WSW 17:47:56 52° S
Meteor 2-10 Rocket 4.0 17:44:47 10° SSW 17:50:07 62° WNW 17:55:16 10° N
ARGOS 3.0 17:50:30 59° SSE 17:51:36 89° E 17:57:04 10° NNW
Milstar 3 3.9 17:47:10 10° WSW 17:52:50 29° S 17:54:02 28° SSE
Meteor 2-1 Rocket 4.4 17:47:48 10° SSW 17:53:18 69° W 17:58:48 10° N
Cosmos 1486 Rocket 4.4 17:52:24 10° NNW 17:57:40 61° WSW 17:59:23 40° SSW
Cosmos 2227 Rocket 2.7 17:56:07 10° NNW 18:01:40 58° WSW 18:03:35 38° SSW
SL-4 R/B 4.5 18:00:52 10° NW 18:01:42 14° NNW 18:01:42 14° NNW
CSL-04 Rocket 4.5 18:00:53 10° S 18:06:15 51° W 18:11:39 10° NNW
Cosmos 2263 Rocket 4.2 18:06:23 10° N 18:07:58 17° N 18:07:58 17° N
GEOS 3 Rocket 4.2 18:12:43 51° SW 18:13:09 53° WSW 18:18:25 10° NW
Cosmos 1697 Rocket 3.2 18:12:29 10° SW 18:17:58 55° WNW 18:18:39 52° NW
H-2A R/B 3.7 18:21:17 10° SSW 18:26:05 33° W 18:30:59 10° NNW
CZ-4C R/B 4.3 18:20:44 10° NNW 18:24:33 22° NNE 18:24:33 22° NNE
Lacrosse 5 4.3 18:25:37 10° NNW 18:26:52 13° N 18:26:52 13° N
Cosmos 1980 Rocket 4.4 18:34:00 10° SSW 18:34:49 14° SSW 18:34:49 14° SSW
Cosmos 2297 Rocket 4.3 18:37:17 10° NW 18:41:29 22° W 18:44:22 15° SW
ATLAS 2AS CENTAUR R/B 4.4 19:28:50 10° NW 19:31:56 27° NNW 19:31:56 27° NNW
